Terug naar catalogus

STARLINK-3052

ActiefCommunicatieVLEO
NORAD 49165·PAYLOAD·🇺🇸 United States

Gelanceerd Sep 14, 2021 vanaf Vandenberg Space Force Base

Loading…

Volgende Passages (komende 24 uur)

TLE

VersSource: CelesTrak SupGP

Epoch: Sep 14, 2026, 21:30 UTC

1 49165C 21082AM  26257.89631944  .00549340  00000+0  42098-1 0  2579
2 49165  70.0005 177.3961 0003209 268.2415 248.2164 15.01482601    11

Volg STARLINK-3052 in realtime met AllMySat

Download on the App Store